星链-1042 (STARLINK-1042 )

导读

STARLINK-1042是美国SpaceX公司星链星座的卫星,于2019年11月11日发射,星链计划旨在构建全球卫星互联网,为全球偏远地区提供互联网接入服务,STARLINK-1042是星链早期组网的卫星之一,后续星链卫星迭代后,这类早期卫星逐步被替换再入大气层销毁。

Basic Information
目录编号:
44747
目录名称:
STARLINK-1042
国际标识:
2019-074AL
轨道中心:
EARTH
卫星名称:
星链-1042
卫星全名:
星链-1042 (STARLINK-1042 )
卫星状态:
在轨 (已飞行2497 天)
发射日期:
2019-11-11 UTC
国别 :
美国 (US)
星等 :
--
This satellite is enrolled in the Space Conjunction Data Service (SCDS) and the current flight risk assessment level is: No High Risk
Orbit Information
数据来源 国际轨道数据 AOE轨道数据
星历时间 2026-09-12T10:07:10+0800
9小时前
查看轨道信息
2026-09-10T23:00:00+0800
1天前
查看轨道信息
半长轴 6763.603km 6763.826km
偏心率 0.0005528 0.0005759
轨道倾角 53.038° 53.037°
近地点辐角 29.897° 26.628°
升交点赤经 273.974° 281.114°
平近点角 330.236° 26.945°
近地点 381.727km 381.793km
远地点 389.205km 389.585km
周期 92.263分钟 92.267分钟
每日圈数 15.607582 15.60681
Detailed Information
固有亮度:
5
最大亮度:
2.5
卫星平台:
Starlink V1.0
覆盖范围:
全球
运营商:
太空探索技术公司
运营商所在国:
美国
制造商(研发单位):
太空探索技术公司
制造商所在国:
美国
使用方式:
暂无
Satellite Introduction
星链(Starlink)计划是由太空探索技术公司(SpaceX)提出的一个巨型低轨卫星互联网星座项目,计划在2019年至2024年间在太空搭建由约1.2万颗卫星组成的“星链”网络,其中1584颗将部署在地球上空550千米处的近地轨道,并从2020年开始工作。该卫星仍在工作。
2D Orbit Map
3D Orbit Map
Orbit Altitude Analysis Chart
Orbit Inclination Analysis Chart
Orbit Comprehensive Analysis Chart
View Comprehensive Chart
Conjunction Data List
Event ID Objects TCA Miss Dist (km) Collision Risk Probability Collision Risk Index (CRI) Action
CDM_260914-050404-474705-730021
2026-09-14T
05:04:27+0000
2.689 km
极远距离
6.824569E-7 极低风险 0.32
Miss Distance Evolution Trend with All Objects
Collision Probability Evolution Trend with All Objects